Simultaneous Nadir Overpasses (SNOs) Predictions

Prediction of SNOs between GOES-14 and NOAA-20 Satellite Orbit:

Table of predicted SNOs for the next 14.0 days since TLE Epoch: 4/4/2025
Index Date Time (GOES-14) GOES-14 Lat,Lon NOAA-20 Lat,Lon Distance(km) Time Diff (sec)
1 04/04/2025 20:43:48 -0.44,-108.25 -0.88,-110.27 229.07 80
2 04/05/2025 20:27:45 -0.46,-108.26 0.10,-105.73 287.64 80
3 04/07/2025 08:46:55 0.43,-108.27 1.06,-111.02 312.77 80
4 04/08/2025 08:30:52 0.45,-108.28 0.07,-106.48 204.33 80
5 04/09/2025 20:50:12 -0.41,-108.29 -1.19,-111.81 401.24 80
6 04/10/2025 20:34:09 -0.43,-108.30 -0.20,-107.28 115.97 80
7 04/12/2025 08:53:19 0.39,-108.32 1.34,-112.57 484.12 80
8 04/13/2025 08:37:15 0.41,-108.33 0.34,-108.04 33.11 80
9 04/15/2025 20:37:51 -0.39,-108.34 -0.50,-108.83 55.39 80
10 04/16/2025 20:21:48 -0.41,-108.35 0.51,-104.30 461.63 80
11 04/18/2025 08:40:57 0.37,-108.36 0.67,-109.57 139.25 80
